OBJECT D, 51827

Orbit data source: Space-Track

You're viewing an Uncataloged Satellite

Recently launched and/or uncataloged satellites may have evolving metadata. Metadata may include but not limited to: Owner, Maufacturer, Bus, Motor, and Mission.

OBJECT D, 51827 is a satellite owned by Sanya RI (CN) in SSO that was launched on Sun, 27 Feb 2022 UTC via a CHANG ZHENG 8 launch vehicle from the Wenchang Satellite Launch Center (WSC). Unknown objects in Earth's orbit typically refer to objects detected orbiting the Earth but have not yet been identified or cataloged. These objects could be anything from previously untracked satellites, spent rocket stages, debris from satellite collisions, or even natural meteoroids temporarily captured by Earth's gravity.

Loading next visibility...
Identifier
51827, 2022-019D
Orbit
SSO
Last TLE update
6 hours ago
Origin
Flag of CNSANYZ (CN / PRC)
Manufacturer
Weina
Mission
Non-operational Civil Imaging
Bus & Motor
MN50?, Unknown motor
Mass
62 kg wet, 62 kg dry
Launch date (UTC)
2022-02-27 (3 years ago)
Launch vehicle
CHANG ZHENG 8
Launch site
Wenchang Satellite Launch Center (WSC)
Object type
Unknown
Shape & HBR
Box + 2 Pan, 2 m
Radar Cross Section
1.775 m², Medium (>0.1 m² and < 1m²)

Expand to show TLE details & history

TLE from 6 hours ago
0 OBJECT D
1 51827U 22019D   25182.49655786  .00014538  00000-0  35912-3 0  9999
2 51827  97.3939 260.1651 0008051 338.0085  22.0815 15.40567126185286
Epoch: 2025-07-01T11:55Z
TLE epoch observation values (Epoch: 2025-07-01T11:55:02.599Z)
Latitude
0.00003°
Longitude
161.61309°
Altitude
442.462 km
Speed
7.649 km/s
True Right ascension
17h 20m 39s
True Declination
0° 00' 00"
Sunlit
Object was in full shadow at epoch
Visualization orbit readout
Latitude
-13.06287°
Longitude
163.58927°
Altitude
444.721 km
Speed
7.648 km/s
Apparent Right ascension
17h 35m 44s
Apparent Declination
-25° 54' 12"
Sunlit
Object is in full shadow
Visualization observer readout
Local Sidereal Time
05:45:29
Azimuth
8.989° NNE
Elevation
-75.84°
Doppler factor
1
Orbital elements
Apogee altitude
446.863 km
Perigee altitude
435.882 km
Semi-major axis
6,819.509 km
Eccentricity
0.00081
Inclination
97.3939°
RAAN
260.1651°
Arg. of periapsis
338.0085°
True anomaly
Unknown
Mean anomaly
22.0815°
Eccentric anomaly
Unknown
Mean motion
3.85402 °/min
Orbital period
93.41 mins
BSTAR
0.00035912
Loading maneuver chart data...
Loading SW <> Apogee altitude chart data...
Loading historical data...
Loading historical data...
Loading historical data...
Loading historical data...
Loading historical data...
Loading historical data...
Loading historical data...

OBJECT D Visibility forecast

Observer location: undefined°, undefined°

Span
Click to sort rows by Start time (UTC) header in descending order
Start Az.
Max El. time (UTC)
Max El. Az.
Max El.
End time (UTC)
End Az.
4 mins2025-07-01 18:42:46.602Z338.16° N2025-07-01 18:44:46.602Z293.285° NW22.975°2025-07-01 18:46:46.602Z243.297° WSW
4 mins2025-07-02 05:12:46.602Z161.952° S2025-07-02 05:14:46.602Z5.319° NNE42.234°2025-07-02 05:16:46.602Z350.735° N
|